Temperature
15 16 16 16 16 17 18 18 18 18 18 17 17 16 14 14 13 13 13 13 13 12 12 12 11 11 11 11 11 10 10 9 9 9 8 7 8 6 6 6 5 5 6
15 15 15 15 16 16 17 18 18 18 18 18 17 16 15 14 13 13 13 12 12 12 12 11 11 11 10 10 10 10 9 9 8 7 6 6 6 5 6 6 5 5 5
15 16 16 15 16 16 17 18 18 18 18 17 16 16 15 13 13 12 12 12 11 11 11 11 10 10 10 10 10 9 8 8 7 6 5 5 6 4 4 4 4 3 4
15 15 15 15 15 16 16 17 17 17 17 17 17 16 15 13 12 12 12 11 11 11 10 10 10 10 10 9 9 8 7 7 6 5 5 4 3 2 2 2 2 1 2
15 14 15 15 15 15 16 16 17 16 16 16 16 15 13 13 12 12 11 11 10 10 10 10 10 9 9 9 8 7 6 6 5 4 4 2 1 0 -0 1 1 0 -0
14 14 14 14 14 14 15 16 16 16 16 15 14 13 13 13 12 11 11 10 10 9 9 9 9 9 8 8 7 6 6 5 4 4 3 2 0 -0 -1 -1 -1 -1 -1
14 14 14 13 13 13 14 15 15 15 15 14 13 13 12 12 12 11 11 10 9 9 9 9 9 8 7 7 6 5 5 4 4 3 2 1 1 -0 -1 -2 -3 -3 -2
14 14 13 13 12 13 14 14 15 15 14 13 12 12 12 11 11 11 10 10 9 9 9 8 8 7 7 6 5 5 4 3 3 2 2 1 0 -0 -2 -3 -4 -4 -3
13 13 13 12 12 12 13 14 14 14 13 12 12 11 11 11 11 10 9 9 9 8 8 8 7 6 6 5 4 4 3 3 2 1 1 0 -0 -1 -2 -3 -4 -5 -4
12 12 12 11 10 10 11 11 12 12 12 12 11 11 11 10 10 9 9 8 8 8 7 7 6 6 5 4 4 3 2 2 1 1 0 -1 -1 -2 -3 -4 -5 -5 -6
11 11 11 10 9 9 8 8 9 10 11 11 11 10 10 9 9 8 8 8 8 7 7 6 5 5 4 3 3 2 2 1 1 -0 -1 -1 -2 -3 -4 -5 -5 -6 -6
10 10 10 9 8 7 7 7 8 9 10 11 10 10 9 8 8 8 8 7 7 7 6 5 4 4 3 3 2 2 1 1 0 -1 -1 -2 -3 -4 -5 -6 -6 -7 -7
9 9 8 7 6 6 6 6 8 9 10 10 9 9 8 8 8 7 7 7 6 6 5 4 4 3 2 2 1 1 0 0 -1 -1 -2 -3 -4 -5 -6 -6 -7 -7 -8
7 7 6 6 5 5 5 6 8 9 9 9 9 8 8 7 7 7 7 6 6 5 4 3 3 2 2 1 1 0 -0 -1 -1 -2 -3 -4 -5 -6 -7 -7 -8 -8 -8
6 5 5 4 4 4 5 7 8 8 9 8 8 8 7 7 7 6 6 5 5 4 3 3 2 2 1 0 -0 -1 -1 -2 -2 -3 -4 -5 -5 -6 -7 -8 -8 -8 -8
5 4 4 3 3 4 5 7 8 8 8 8 7 7 7 7 6 6 5 4 4 3 2 2 1 1 0 -0 -1 -1 -2 -2 -3 -4 -5 -6 -6 -7 -8 -8 -8 -9 -9
4 3 3 3 3 5 6 7 7 7 7 7 7 7 6 6 5 5 4 3 3 2 2 1 1 0 -0 -1 -1 -2 -2 -3 -4 -4 -5 -6 -7 -8 -8 -9 -9 -9 -8
4 3 3 3 3 4 6 7 7 7 7 7 7 6 6 5 4 4 3 2 2 1 1 0 0 -0 -1 -1 -2 -2 -3 -4 -4 -5 -6 -7 -8 -8 -9 -9 -9 -9 -9
4 4 4 4 4 5 6 7 6 6 6 6 6 6 5 4 4 3 2 2 1 1 0 -0 -0 -1 -1 -2 -2 -3 -4 -5 -6 -6 -7 -8 -9 -9 -9 -9 -9 -9 -9
5 4 4 5 5 6 6 7 6 6 6 6 5 5 4 3 2 2 1 1 0 -0 -0 -1 -1 -2 -2 -3 -3 -4 -5 -7 -7 -8 -8 -8 -9 -9 -9 -9 -9 -9 -9
5 5 5 5 6 6 6 6 6 6 6 5 4 4 3 2 2 1 0 0 -0 -1 -1 -1 -2 -2 -3 -3 -4 -5 -6 -8 -8 -8 -9 -9 -9 -9 -9 -9 -9 -10 -10
5 5 6 6 6 6 6 6 6 5 5 4 3 3 2 1 1 0 -0 -1 -1 -1 -2 -2 -2 -3 -3 -4 -5 -5 -7 -8 -9 -9 -9 -9 -9 -9 -9 -9 -9 -9 -9
5 5 6 6 5 5 6 6 5 4 4 3 2 2 1 0 -0 -0 -1 -1 -1 -2 -2 -3 -3 -3 -4 -5 -5 -6 -8 -8 -9 -9 -9 -9 -9 -9 -8 -8 -8 -9 -9
4 4 5 5 4 4 5 5 5 4 3 2 2 1 0 -0 -1 -1 -1 -2 -2 -3 -3 -4 -4 -5 -5 -6 -7 -8 -9 -9 -9 -9 -9 -9 -9 -8 -8 -8 -8 -9 -9
4 4 4 4 4 4 4 4 4 3 2 2 1 0 -0 -1 -1 -1 -2 -2 -3 -3 -4 -5 -6 -6 -7 -7 -8 -9 -9 -10 -10 -10 -10 -9 -9 -9 -9 -9 -9 -9 -9
3 3 3 4 4 3 3 3 2 2 2 1 0 -0 -1 -1 -2 -2 -2 -3 -3 -4 -5 -6 -6 -7 -7 -8 -8 -9 -9 -9 -9 -10 -10 -10 -9 -9 -9 -9 -8 -8 -8
Wind_Speed
21 19 18 16 14 13 13 14 14 15 14 12 12 10 8 7 7 7 11 12 13 13 11 8 7 6 5 5 4 4 4 5 5 4 2 1 2 3 3 3 4 3 5
23 22 20 18 16 15 14 14 15 16 16 14 12 9 9 7 8 8 10 12 13 12 10 9 8 7 6 6 5 4 3 4 5 4 4 3 2 2 3 4 4 5 6
25 24 23 21 18 17 16 13 16 17 17 16 12 12 9 7 6 8 8 9 12 12 11 11 9 7 6 5 5 5 4 3 4 5 4 3 3 5 4 4 5 6 7
23 23 23 22 21 19 15 15 15 17 18 18 17 19 13 11 9 9 8 10 11 12 12 12 10 8 6 6 5 5 4 3 3 2 3 2 3 4 5 5 5 7 9
20 21 22 22 20 18 15 15 16 17 18 18 19 18 15 12 12 12 13 11 10 11 11 11 9 8 6 6 5 4 3 3 2 2 2 2 3 5 5 8 9 9 9
18 19 19 19 18 16 15 15 17 18 18 18 18 18 19 19 19 16 14 11 9 8 10 10 9 8 6 6 5 4 3 2 1 1 2 3 4 5 6 8 12 13 11
16 17 18 17 17 17 17 17 19 19 19 19 18 18 20 21 21 19 15 13 10 9 10 8 8 7 7 6 4 3 2 1 1 2 3 4 5 6 7 10 12 15 14
17 17 17 16 17 19 19 20 20 20 20 19 18 18 18 15 14 15 14 12 10 10 10 9 8 8 7 5 4 2 1 1 3 4 4 5 6 6 7 9 12 14 12
17 17 16 16 17 19 20 21 21 21 20 20 19 19 18 16 16 15 13 11 10 10 11 10 8 7 6 4 2 1 1 2 3 4 5 6 6 7 7 9 10 11 15
16 15 14 14 15 17 18 20 21 21 21 20 18 16 17 17 17 15 14 13 13 12 11 9 8 7 5 3 1 1 2 3 4 5 7 7 7 7 8 9 10 11 15
15 12 10 12 14 16 17 19 20 21 20 20 19 19 18 17 16 15 15 14 13 12 10 9 7 6 4 2 1 2 3 4 5 6 7 8 9 9 9 9 10 12 13
12 8 8 11 14 17 18 19 20 20 20 20 20 19 19 17 16 15 15 14 13 11 9 8 6 4 2 1 2 3 4 6 7 8 8 9 9 11 11 10 12 13 14
5 4 8 12 15 17 18 18 19 19 20 20 21 20 18 17 17 16 14 13 12 10 8 7 5 3 1 1 3 4 6 7 8 9 9 10 11 12 11 13 13 13 14
3 6 10 12 15 16 17 18 18 19 20 20 20 19 18 17 16 15 14 12 11 9 8 6 4 2 1 2 4 6 7 8 9 9 10 11 12 13 14 14 15 15 16
6 9 11 13 15 16 17 18 18 18 19 20 19 18 17 16 15 14 13 11 10 8 7 5 3 1 1 3 6 7 8 10 10 10 10 11 13 16 15 14 16 17 16
7 10 12 14 16 17 17 18 18 18 18 19 19 18 17 16 15 13 12 11 9 7 5 3 1 1 2 5 8 9 10 10 11 11 12 12 14 15 19 21 22 21 20
10 12 13 14 15 16 18 19 19 18 18 19 18 17 16 15 14 12 11 10 8 6 4 2 1 2 3 6 9 10 11 11 11 12 12 12 12 17 15 19 22 22 24
11 12 13 14 14 15 17 18 18 18 18 18 17 16 16 15 13 12 10 8 6 4 3 1 1 3 4 7 10 12 11 10 11 12 13 14 15 15 18 19 19 19 19
12 13 14 15 16 17 18 19 18 18 18 17 16 15 15 14 12 11 9 7 5 3 1 1 2 4 5 6 10 12 10 10 12 13 13 15 16 19 22 20 19 20 18
13 14 15 16 16 17 18 19 18 17 17 16 15 14 13 13 11 10 8 5 4 2 1 1 3 4 6 7 11 13 9 10 11 12 14 16 17 21 24 19 19 20 18
15 15 16 15 15 17 18 18 17 16 16 15 15 13 12 11 10 8 6 5 3 1 1 3 3 4 6 8 10 13 10 11 12 13 13 13 19 23 26 23 18 19 20
15 15 15 14 14 16 17 17 16 16 16 15 14 12 11 9 8 7 6 4 2 0 2 4 5 4 5 7 10 14 14 15 14 13 13 14 23 26 25 20 18 22 20
13 13 15 15 14 13 15 18 17 16 16 15 13 11 10 8 7 6 4 3 1 1 3 4 6 6 6 8 12 14 17 18 14 13 19 22 24 23 17 17 20 18 12
13 14 16 16 14 13 14 16 17 16 16 14 12 10 9 7 6 4 3 1 1 2 4 5 6 7 8 8 9 11 13 15 14 14 17 21 20 17 16 16 13 10 10
13 13 14 16 16 15 15 15 15 15 15 13 11 9 7 6 5 3 2 1 1 3 5 6 7 8 9 11 17 15 12 13 14 16 13 11 11 11 11 11 11 11 11
14 14 15 16 16 15 15 13 12 14 14 11 9 6 5 4 3 2 1 1 2 4 6 7 9 9 12 17 18 18 19 20 20 15 11 11 11 11 12 12 13 12 12
Wind_Direction
252 250 248 246 241 232 222 213 201 189 178 176 175 169 164 148 135 131 136 134 133 130 124 121 118 113 108 104 96 82 57 32 0 341 331 195 197 214 205 252 266 278 303
249 246 242 238 234 227 218 209 198 186 181 178 172 166 143 125 116 115 119 124 127 126 124 124 119 115 112 103 87 74 62 43 22 2 335 317 219 185 224 273 273 290 303
246 243 237 232 227 224 215 203 194 184 179 169 152 136 121 117 116 120 116 120 123 121 122 120 117 116 114 103 88 74 62 50 41 26 5 333 316 315 273 272 283 295 308
242 241 238 233 224 219 210 200 188 180 173 164 162 161 161 154 148 140 127 123 120 118 121 119 118 116 113 110 99 82 70 50 35 41 21 343 317 299 303 283 279 293 301
244 241 239 234 227 215 202 190 180 176 170 170 168 167 157 141 134 130 128 123 117 119 122 121 121 117 114 111 106 95 74 57 29 1 334 302 284 270 284 295 303 302 299
251 248 243 235 226 210 194 182 175 172 169 168 167 163 151 145 142 141 137 131 126 125 126 127 124 121 119 117 110 101 91 64 50 307 297 299 295 297 290 292 301 304 304
263 255 245 231 217 202 189 179 173 168 167 165 164 157 153 150 149 147 145 142 138 139 140 135 129 125 123 119 115 110 113 145 265 284 290 284 280 288 286 288 297 300 301
271 261 248 230 213 198 187 178 172 166 164 161 155 150 148 145 144 144 144 140 140 140 140 134 131 129 127 124 125 138 172 231 264 282 286 284 283 283 283 289 300 303 299
275 264 250 229 209 195 186 177 168 162 159 153 147 146 145 142 140 138 135 131 133 137 138 136 134 130 127 127 142 176 238 264 280 288 288 286 287 285 285 286 288 294 300
282 265 244 220 201 191 181 171 164 157 151 147 143 142 141 138 137 135 135 134 136 137 139 139 135 133 133 143 178 233 267 280 287 292 293 295 291 291 289 287 286 284 288
285 261 231 204 186 175 167 161 154 148 145 143 139 137 136 136 134 132 133 134 136 139 139 138 137 137 141 159 223 271 279 287 294 294 295 297 298 296 293 292 289 287 287
279 247 201 174 166 161 157 153 148 145 142 139 136 134 133 134 131 131 133 135 135 135 135 136 135 135 145 201 272 286 288 293 297 300 299 299 301 297 297 295 292 290 289
263 192 159 158 157 153 150 146 143 140 138 136 134 132 133 133 132 132 133 133 133 132 133 135 134 138 157 256 285 292 295 295 296 298 299 300 302 301 300 299 295 293 292
177 147 147 148 147 146 143 140 137 137 136 135 133 132 133 132 131 131 132 133 133 133 133 131 131 139 209 273 290 295 296 296 296 295 295 296 299 301 302 299 297 296 297
137 138 142 143 141 139 137 135 135 137 136 132 130 130 129 128 128 130 130 130 128 127 130 133 137 165 267 296 308 305 301 300 299 297 296 295 297 297 297 297 299 300 297
142 139 140 141 141 140 138 136 135 136 133 130 128 129 129 129 129 131 130 129 128 129 134 137 149 263 304 315 309 312 306 301 299 300 301 301 298 299 300 300 299 295 293
147 145 145 143 142 141 139 137 136 134 130 128 129 130 130 130 131 131 131 131 132 135 140 145 229 301 318 315 315 316 308 302 300 301 303 303 302 304 302 300 298 294 292
145 143 141 138 137 135 134 132 132 131 129 128 130 131 132 131 132 132 132 132 134 139 144 162 301 305 314 320 318 317 308 301 299 301 303 303 304 304 306 303 301 298 296
138 136 136 135 134 135 135 132 130 130 129 131 133 135 135 134 135 134 132 132 137 141 151 257 298 306 313 320 319 322 312 303 303 303 301 301 300 303 307 307 305 303 301
128 129 131 133 134 137 137 133 132 133 133 134 133 134 134 134 134 131 130 132 138 141 200 276 294 302 311 318 321 324 312 308 308 305 303 302 304 308 310 310 308 305 306
126 129 132 134 137 140 138 133 132 132 131 129 128 127 127 126 126 125 127 133 136 160 278 297 300 298 306 314 319 322 318 313 310 307 306 305 309 310 311 311 305 302 306
128 132 130 129 136 140 137 131 128 128 127 125 123 122 121 120 124 126 128 131 139 265 312 314 315 312 312 309 318 321 317 315 310 307 307 308 310 312 312 310 304 306 307
127 128 127 127 131 135 134 128 128 129 127 123 121 120 118 118 125 129 132 132 115 329 325 321 317 319 319 318 319 319 318 317 312 306 306 308 310 313 310 306 307 308 304
125 128 127 126 125 125 123 125 129 129 127 124 123 123 123 124 126 123 121 107 10 335 324 319 318 318 317 321 326 323 320 318 314 311 309 309 309 308 305 306 307 304 299
122 125 125 123 122 120 120 124 128 128 125 123 124 124 126 129 126 117 90 18 359 324 321 321 318 317 316 321 323 320 318 318 315 316 310 309 312 313 314 312 309 308 306
118 118 118 118 119 119 120 123 128 129 126 125 127 127 128 124 119 112 101 219 290 316 319 322 321 315 312 318 321 321 320 320 320 318 309 310 312 312 312 312 311 311 309
Height
1454 1456 1457 1458 1460 1462 1465 1468 1471 1473 1475 1477 1480 1482 1485 1489 1492 1496 1499 1502 1505 1507 1509 1511 1512 1513 1513 1513 1512 1511 1509 1507 1505 1503 1501 1498 1496 1495 1494 1493 1492 1490 1488
1445 1446 1448 1450 1451 1454 1457 1460 1463 1466 1469 1471 1474 1477 1480 1483 1487 1491 1495 1498 1501 1504 1506 1508 1510 1511 1511 1511 1510 1508 1506 1504 1502 1501 1499 1499 1498 1494 1492 1491 1489 1487 1485
1434 1436 1438 1440 1442 1445 1449 1452 1456 1459 1462 1464 1467 1470 1474 1478 1483 1487 1491 1495 1498 1501 1503 1506 1507 1508 1509 1508 1507 1506 1504 1502 1501 1499 1499 1498 1497 1494 1490 1487 1485 1482 1480
1424 1426 1428 1430 1433 1436 1441 1444 1448 1451 1454 1457 1461 1464 1468 1472 1477 1482 1487 1491 1495 1498 1501 1503 1505 1506 1506 1506 1504 1503 1502 1501 1499 1497 1496 1495 1493 1491 1487 1483 1480 1477 1473
1416 1417 1418 1421 1425 1428 1432 1436 1440 1444 1448 1452 1456 1460 1464 1468 1474 1479 1484 1488 1492 1495 1498 1501 1502 1503 1503 1503 1502 1500 1499 1498 1497 1495 1493 1491 1489 1487 1485 1479 1475 1472 1468
1409 1409 1411 1413 1416 1420 1423 1428 1433 1437 1442 1446 1451 1455 1459 1463 1469 1475 1480 1484 1489 1492 1496 1498 1500 1500 1500 1500 1499 1498 1496 1495 1494 1492 1490 1488 1486 1484 1481 1476 1470 1465 1461
1403 1402 1403 1405 1407 1411 1415 1420 1426 1431 1436 1441 1446 1451 1456 1461 1466 1472 1477 1482 1486 1490 1493 1496 1497 1498 1497 1497 1496 1495 1494 1492 1490 1488 1486 1484 1481 1479 1476 1471 1465 1460 1455
1396 1395 1395 1397 1400 1403 1407 1413 1419 1425 1430 1436 1441 1447 1453 1458 1464 1470 1475 1480 1485 1488 1491 1493 1494 1495 1495 1494 1493 1492 1491 1489 1487 1485 1482 1480 1477 1474 1471 1467 1462 1454 1448
1388 1387 1388 1390 1392 1396 1401 1407 1413 1419 1425 1431 1437 1443 1450 1456 1462 1468 1474 1479 1484 1487 1489 1491 1492 1492 1492 1491 1490 1489 1487 1486 1483 1481 1478 1475 1472 1469 1466 1462 1459 1454 1443
1379 1379 1380 1383 1386 1391 1396 1402 1409 1414 1420 1427 1434 1440 1447 1454 1461 1467 1473 1478 1482 1485 1487 1488 1489 1489 1489 1488 1487 1486 1484 1482 1479 1477 1474 1471 1468 1464 1461 1457 1453 1449 1442
1372 1372 1374 1377 1382 1387 1393 1398 1405 1411 1418 1425 1432 1439 1446 1453 1460 1467 1472 1477 1481 1483 1485 1486 1487 1487 1486 1486 1484 1483 1481 1478 1475 1472 1469 1466 1463 1459 1455 1451 1447 1443 1438
1367 1367 1370 1374 1379 1384 1390 1396 1402 1409 1416 1423 1431 1438 1446 1453 1460 1466 1471 1476 1479 1481 1483 1484 1484 1484 1484 1483 1481 1479 1477 1474 1471 1468 1464 1461 1457 1453 1450 1445 1441 1436 1432
1365 1366 1369 1373 1378 1384 1389 1395 1401 1408 1416 1423 1430 1438 1446 1453 1460 1466 1470 1474 1477 1479 1480 1481 1482 1481 1480 1479 1478 1476 1473 1470 1467 1463 1459 1455 1452 1448 1444 1439 1435 1430 1425
1365 1366 1370 1374 1379 1384 1389 1395 1401 1409 1416 1424 1431 1439 1447 1454 1460 1465 1469 1473 1475 1477 1478 1479 1479 1478 1477 1476 1474 1471 1468 1465 1462 1458 1454 1450 1446 1442 1438 1434 1429 1425 1420
1366 1368 1372 1376 1380 1385 1390 1396 1403 1410 1418 1425 1433 1440 1448 1454 1460 1465 1468 1471 1473 1475 1476 1476 1476 1475 1474 1472 1469 1467 1463 1460 1456 1452 1448 1444 1440 1436 1432 1428 1424 1419 1414
1368 1371 1374 1378 1381 1386 1391 1397 1405 1412 1420 1427 1435 1442 1449 1455 1460 1464 1467 1470 1472 1473 1474 1474 1473 1472 1470 1468 1465 1462 1458 1455 1451 1447 1442 1438 1434 1430 1426 1422 1418 1414 1409
1369 1373 1376 1379 1384 1388 1394 1400 1407 1415 1423 1430 1438 1444 1450 1455 1460 1463 1466 1468 1470 1471 1471 1471 1470 1469 1466 1464 1460 1457 1453 1449 1445 1441 1437 1433 1429 1424 1419 1415 1411 1407 1402
1371 1374 1378 1382 1386 1391 1397 1404 1412 1419 1426 1433 1440 1446 1451 1455 1459 1462 1465 1467 1468 1469 1469 1468 1467 1465 1462 1459 1455 1451 1447 1444 1440 1436 1432 1427 1423 1418 1414 1409 1404 1399 1395
1373 1376 1380 1384 1389 1395 1401 1408 1415 1423 1430 1436 1442 1447 1452 1456 1459 1462 1464 1466 1467 1467 1466 1465 1463 1461 1458 1454 1451 1446 1442 1438 1435 1431 1427 1422 1418 1413 1409 1404 1397 1391 1386
1376 1379 1383 1388 1394 1400 1406 1413 1419 1426 1433 1439 1444 1449 1453 1456 1459 1461 1463 1464 1465 1464 1463 1461 1459 1456 1453 1450 1446 1442 1437 1433 1430 1426 1421 1417 1412 1407 1403 1398 1391 1385 1379
1379 1383 1388 1393 1398 1404 1411 1417 1423 1429 1435 1441 1445 1449 1453 1456 1459 1461 1462 1463 1462 1462 1460 1458 1455 1452 1449 1445 1442 1437 1433 1429 1425 1420 1416 1411 1406 1401 1396 1391 1385 1379 1373
1383 1388 1392 1397 1403 1409 1415 1420 1426 1432 1437 1442 1446 1450 1454 1456 1458 1460 1461 1461 1460 1459 1457 1455 1452 1449 1445 1441 1437 1433 1429 1425 1420 1415 1410 1405 1400 1395 1389 1384 1378 1373 1368
1387 1391 1396 1401 1407 1413 1419 1423 1428 1434 1439 1444 1447 1451 1454 1456 1458 1459 1459 1458 1457 1456 1453 1451 1447 1444 1441 1437 1432 1428 1424 1419 1415 1409 1404 1399 1393 1388 1382 1377 1372 1367 1362
1390 1395 1399 1404 1410 1416 1422 1427 1432 1437 1441 1445 1448 1451 1454 1456 1457 1457 1457 1456 1454 1452 1449 1446 1443 1439 1436 1432 1428 1423 1419 1414 1409 1404 1398 1393 1388 1382 1377 1372 1367 1363 1358
1394 1398 1402 1407 1412 1418 1424 1430 1435 1439 1443 1446 1449 1452 1454 1455 1455 1455 1455 1453 1451 1449 1446 1443 1439 1435 1431 1428 1424 1419 1414 1409 1404 1399 1393 1388 1383 1378 1373 1368 1363 1358 1353
1397 1401 1406 1411 1416 1422 1428 1433 1438 1442 1445 1447 1450 1452 1453 1454 1454 1453 1452 1450 1448 1445 1442 1439 1436 1431 1427 1422 1418 1414 1409 1404 1399 1394 1389 1384 1379 1374 1369 1363 1358 1353 1348